NOAA 16 DEB, 42340

Orbit data source: Space-Track

NOAA 16 DEB, 42340 is space debris in SSO originally from a launch on Thu, 21 Sep 2000 UTC launched from the Air Force Western Test Range (AFWTR). Debris objects in space refer to the collection of defunct objects orbiting the Earth. Examples of debris include non-operational satellites, rocket bodies, and fragments generated from explosions, collisions, or faulty payload assembly.

Loading next visibility...
Identifier
42340, 2000-055QG
Orbit
SSO
Country
Flag of USUS
Related business
Manufacturer
Unknown
Mission
Spacecraft
Bus & Motor
Unknown
Mass
Unknown
Launch date (UTC)
2000-09-21 (25 years ago)
Launch vehicle
Unknown
Launch site
Air Force Western Test Range (AFWTR)
Object type
Payload
Rocket body
Debris
Shape & HBR
Unknown shape, 0.1 m
Radar Cross Section
Small (<0.1 m²)

Expand to show TLE details & history
Last TLE update: 2 days ago

TLE from 2 days ago
0 NOAA 16 DEB
1 42340U 00055QG  26070.89645184  .00013821  00000-0  37837-2 0  9998
2 42340  99.0137 230.2638 0029587 176.4890 183.6513 14.47025789517944
Epoch: 2026-03-11T21:30Z
TLE epoch observation values (Epoch: 2026-03-11T21:30:53.438Z)
Latitude
-0.0001°
Longitude
97.98704°
Altitude
759.329 km
Speed
7.464 km/s
True Right ascension
15h 21m 03s
True Declination
0° 00' 00"
Sunlit
Object was in full shadow at epoch
Visualization orbit readout
Latitude
Unknown
Longitude
Unknown
Altitude
Unknown
Speed
Unknown
Apparent Right ascension
Unknown
Apparent Declination
Unknown
Sunlit
N/A
Visualization observer readout
Local Sidereal Time
08:33:50
Azimuth
Unknown
Elevation
Unknown
Doppler factor
Unknown
Orbital elements
Apogee altitude
753.555 km
Perigee altitude
711.478 km
Semi-major axis
7,110.654 km
Eccentricity
0.00296
Inclination
99.0137°
RAAN
230.2638°
Arg. of periapsis
176.489°
True anomaly
183.62979°
Mean anomaly
183.6513°
Eccentric anomaly
183.64054°
Mean motion
3.61975 °/min
Orbital period
99.45 mins
BSTAR
0.0037837
Loading maneuver chart data...
Computing Atmospheric mass density...
Loading historical data...
Loading historical data...
Loading historical data...
Loading historical data...
Loading historical data...
Loading historical data...
Loading historical data...

Documentation

Showing up to 5 results
|